Regional Weather Roundup
Issued by NWS

Home | Current Version | Previous Version | Text Only | Print | Product List | Glossary Off
Versions: 1 2 3 4 5 6 7 8 9 10 11 12 13 14 15 16 17 18 19 20 21 22 23 24 25 26 27 28 29 30 31 32 33 34 35 36 37 38 39 40 41 42 43 44 45 46 47 48 49 50

000
ASUS45 KTFX 271110
RWRMT
MONTANA REGIONAL WEATHER ROUNDUP
NATIONAL WEATHER SERVICE GREAT FALLS MT
500 AM MDT THU AUG 27 2015

NOTE: "FAIR" INDICATES FEW OR NO CLOUDS BELOW 12000 FEET WITH NO
SIGNIFICANT WEATHER AND/OR OBSTRUCTIONS TO VISIBILITY.

MTZ001>007-043-271200-
WEST OF THE DIVIDE

CITY           SKY/WX    TMP DP  RH WIND       PRES   REMARKS
KALISPELL      MOSUNNY   51  41  68 CALM      30.00S
MISSOULA       CLOUDY    60  40  47 NW3       30.04R HAZE
BUTTE          MOCLDY    58  42  55 CALM      30.20R
MULLAN PASS    PTCLDY    64  34  32 NW7       30.20S HAZE
DEER LODGE       N/A     55  41  58 W6        30.15S
EUREKA           N/A     50  37  62 CALM      30.03R
HAMILTON         N/A     64  43  45 S5        30.04S
LIBBY            N/A     52  43  71 CALM      30.02R
PLAINS           N/A     54  44  68 CALM      30.02
$$

MTZ008-052>055-271200-
SOUTHWEST MONTANA

CITY           SKY/WX    TMP DP  RH WIND       PRES   REMARKS
BOZEMAN        MOCLDY    54  48  80 CALM      30.13R
DILLON         MOCLDY    58  44  60 S9        30.17S
W YELLOWSTONE  CLEAR     39  37  93 CALM      30.32S
$$

MTZ009-010-012-014-046-048-049-054-271200-
EAST SLOPES AND CENTRAL MONTANA

CITY           SKY/WX    TMP DP  RH WIND       PRES   REMARKS
CUT BANK       MOCLDY    51  45  79 W5        30.03F HAZE
GREAT FALLS    CLOUDY    60  40  47 SW10      30.02S
MALMSTROM AFB  CLOUDY    63  42  45 SW10      30.01S
HELENA         MOCLDY    66  39  37 SE5       30.08R
CONRAD           N/A     48  43  83 CALM      30.04F
$$

MTZ011-013-016-021-045-047-050-051-271200-
NORTH CENTRAL MONTANA

CITY           SKY/WX    TMP DP  RH WIND       PRES   REMARKS
HAVRE          MOCLDY    52  46  80 SW5       29.97S
LEWISTOWN      MOCLDY    57  45  64 SE8       30.06S
N BAR RANCH      N/A     54  43  66 NW5       30.10S
CHINOOK          N/A     55  48  76 CALM      29.97S
FORT BENTON      N/A     63  43  48 CALM      30.00S
$$

MTZ017>020-022>027-061-062-271200-
NORTHEAST MONTANA

CITY           SKY/WX    TMP DP  RH WIND       PRES   REMARKS
GLASGOW        PTCLDY    58  51  78 SE7       29.97F
JORDAN           N/A     61  49  64 CALM      29.99S
SIDNEY         MOCLDY    61  55  82 NW3       29.97F
WOLF POINT     PTCLDY    55  50  83 CALM      29.98F
MALTA            N/A     53  47  80 CALM      29.94F
PLENTYWOOD       N/A     57  55  94 E7        29.99F
POPLAR           N/A     57  54  88 N5        29.99S
$$

MTZ028>42-056>058-271200-
SOUTHCENTRAL AND SOUTHEAST MONTANA

CITY           SKY/WX    TMP DP  RH WIND       PRES   REMARKS
BAKER          CLOUDY    63  61  93 E7        30.00R
BILLINGS       CLOUDY    72  49  44 SW23      30.03S
LIVINGSTON     PTCLDY    68  43  40 W12       30.11S
MILES CITY     CLOUDY    66  59  78 NE8       29.95F
EKALAKA          N/A     65  60  83 SE6       29.98R
FORSYTH          N/A     66  57  72 CALM      29.97S
LAUREL           N/A     70  48  45 SW13      30.03S
$$

REGIONAL REPORTS...DAKOTAS

CITY           SKY/WX    TMP DP  RH WIND       PRES   REMARKS
WILLISTON      MOCLDY    57  55  93 CALM      30.00S
MINOT          MOCLDY    57  55  93 N6        29.98F
DICKINSON      MOCLDY    61  60  97 E6        29.97S
CROSBY         FOG       50  50 100 CALM      30.00F VSB 1/2
BISMARCK       MOCLDY    61  60  97 NE7       29.98F
GRAND FORKS    PTCLDY    53  50  89 SE3       29.99F
FARGO          PTCLDY    60  53  77 SE5       30.01S
BUFFALO SD       N/A     63  60  90 S7        29.93F
RAPID CITY     CLOUDY    66  57  72 SW3       30.00R
$$

REGIONAL REPORTS...WYOMING/IDAHO/WASHINGTON

CITY           SKY/WX    TMP DP  RH WIND       PRES   REMARKS
GILLETTE       CLOUDY    72  47  40 N16       30.09R
SHERIDAN       LGT RAIN  64  55  72 SE14      30.11R
BUFFALO WY     LGT RAIN  67  50  54 N8        30.17R
CODY           PTCLDY    57  48  72 SW8       30.17F
YELLOWSTONE LA   N/A     40  37  89 CALM      30.41S
IDAHO FALLS    CLEAR     51  48  89 NW5       30.22R
SALMON         PTCLDY    70  41  35 SE3       30.12R
BOISE          PTCLDY    73  48  41 SE12      30.06S
SPOKANE        PTCLDY    66  37  34 SW5       29.99R SMOKE
$$

REGIONAL REPORTS...ALBERTA

CITY           SKY/WX    TMP DP  RH WIND       PRES   REMARKS
EDMONTON       CLEAR     48  46  93 CALM      29.96S VSB 1
CALGARY        MOCLDY    54  50  87 S2        30.01F SMOKE
LETHBRIDGE     CLOUDY    48  46  93 SW7       30.00S FOG
MEDICINE HAT   CLEAR     52  48  87 S2        29.96F
WATERTON GATE    N/A     45  43  93 CALM        N/A
CARDSTON         N/A     50  45  81 SW2         N/A
MILK RIVER       N/A     48  45  87 W6          N/A
$$

REGIONAL REPORTS...SASKATCHEWAN

CITY           SKY/WX    TMP DP  RH WIND       PRES   REMARKS
SWIFT CURRENT  PTCLDY    54  52  94 W9        29.99S
REGINA         PTCLDY    52  50  93 SE6       30.01R
SASKATOON      PTCLDY    52  52 100 S6        29.97F
CYPRESS HILLS    N/A     61  46  59 S6          N/A
ROCKGLEN         N/A     54  52  94 S6          N/A
ASSINIBOIA       N/A     50  50 100 S3          N/A
$$


USA.gov is the U.S. government's official web portal to all federal, state and local government web resources and services.